Carlsbad, NM

11:56 PM MST on January 22, 2018 (GMT -0700)
Cavern City

Weather History for KCNM - November, 2011

Change the Weather History Date:

Tuesday, November 22, 2011

  Actual Average Record
Temperature  
Mean Temperature 56 °F -  
Max Temperature 69 °F 64 °F 81 °F (1977)
Min Temperature 42 °F 35 °F 12 °F (1957)
Degree Days  
Heating Degree Days 10    
Growing Degree Days 6 (Base 50)    
Moisture  
Dew Point 29 °F    
Average Humidity 40    
Maximum Humidity 63    
Minimum Humidity 18    
Precipitation  
Precipitation 0.00 in - - ()
Sea Level Pressure  
Sea Level Pressure 30.12 in    
Wind  
Wind Speed 10 mph (WNW)    
Max Wind Speed 16 mph    
Max Gust Speed 22 mph    
Visibility 10 miles    
Events      
Averages and records for this station are not official NWS values.
T = Trace of Precipitation, MM = Missing Value Source: NWS Daily Summary

Daily Weather History Graph

Daily Weather History Graph

Search for Another Location

Airport or City:

Trip Planner

Search our weather history database for the weather conditions in past years. The results will help you decide how hot, cold, wet, or windy it might be!

Date:

Astronomy

Nov. 22, 2011 Rise Set
Actual Time 6:32 AM MST 4:53 PM MST
Civil Twilight 6:06 AM MST 5:19 PM MST
Nautical Twilight 5:36 AM MST 5:49 PM MST
Astronomical Twilight 5:06 AM MST 6:19 PM MST
Moon 3:32 AM MST (11/22) 2:49 PM MST (11/22)
Length of Visible Light 11h 13m
Length of Day
10h 21m
Waning Crescent, 9% of the Moon is Illuminated
Nov 22
Waning Crescent
Nov 24
New
Dec 2
First Quarter
Dec 10
Full
Dec 17
Last Quarter

Hourly Weather History & Observations

Time (MST) Temp. Windchill Dew Point Humidity Pressure Visibility Wind Dir Wind Speed Gust Speed Precip Events Conditions
12:53 AM 48.9 °F - 35.1 °F 59% 30.00 in 10.0 mi West 10.4 mph - N/A   Clear
1:53 AM 48.9 °F - 36.0 °F 61% 30.00 in 10.0 mi West 11.5 mph - N/A   Clear
2:53 AM 48.0 °F - 35.1 °F 61% 30.01 in 10.0 mi West 9.2 mph - N/A   Clear
3:53 AM 46.9 °F - 34.0 °F 61% 30.04 in 10.0 mi West 11.5 mph - N/A   Clear
4:53 AM 48.2 °F - 35.6 °F 62% 30.12 in 10.0 mi WSW 13.8 mph - N/A   Clear
5:53 AM 48.2 °F - 35.6 °F 62% 30.15 in 10.0 mi West 13.8 mph - N/A   Clear
6:53 AM 45.0 °F 40.1 °F 33.1 °F 63% 30.10 in 10.0 mi WNW 9.2 mph - N/A   Clear
7:53 AM 53.1 °F - 35.1 °F 50% 30.12 in 10.0 mi Variable 4.6 mph - N/A   Clear
8:53 AM 60.8 °F - 30.2 °F 31% 30.21 in 10.0 mi NW 16.1 mph - N/A   Clear
9:53 AM 64.0 °F - 28.0 °F 26% 30.13 in 10.0 mi North 12.7 mph - N/A   Clear
10:53 AM 64.9 °F - 27.0 °F 24% 30.13 in 10.0 mi North 12.7 mph 21.9 mph N/A   Clear
11:53 AM 66.0 °F - 27.0 °F 23% 30.09 in 10.0 mi NNW 9.2 mph - N/A   Clear
12:53 PM 69.1 °F - 25.0 °F 19% 30.07 in 10.0 mi NW 11.5 mph 18.4 mph N/A   Clear
1:53 PM 69.1 °F - 25.0 °F 19% 30.06 in 10.0 mi NNW 5.8 mph - N/A   Clear
2:53 PM 69.8 °F - 24.8 °F 18% 30.15 in 10.0 mi NNE 6.9 mph - N/A   Clear
3:53 PM 69.1 °F - 24.1 °F 18% 30.07 in 10.0 mi North 8.1 mph - N/A   Clear
4:53 PM 64.9 °F - 25.0 °F 22% 30.08 in 10.0 mi Calm Calm - N/A   Clear
5:53 PM 51.8 °F - 21.2 °F 30% 30.18 in 10.0 mi SSW 5.8 mph - N/A   Clear
6:53 PM 48.9 °F - 23.0 °F 36% 30.17 in 10.0 mi WNW 8.1 mph - N/A   Clear
7:53 PM 51.1 °F - 24.1 °F 35% 30.17 in 10.0 mi West 4.6 mph - N/A   Clear
8:53 PM 46.0 °F 42.5 °F 25.0 °F 44% 30.18 in 10.0 mi WSW 6.9 mph - N/A   Clear
9:53 PM 45.0 °F 41.2 °F 25.0 °F 46% 30.19 in 10.0 mi WSW 6.9 mph - N/A   Clear
10:53 PM 42.8 °F 38.6 °F 26.6 °F 53% 30.27 in 10.0 mi West 6.9 mph - N/A   Clear
11:53 PM 46.9 °F - 27.0 °F 46% 30.19 in 10.0 mi WNW 5.8 mph - N/A   Clear